Overview Statistics Trail Chart Weather Telemetry Raw packets
 

This is the latest recevied weather packets stored in our database for station/object I5NOD-13. If no packets are shown the sender has not sent any weather packets the latest 10 day(s).

<< 1 2 3 4 >>
Time Temp. Humidity Pressure Rain* Wind** Luminosity Snow
1788578469 28.89° C 63% 1020.8 hPa - - - -
1788577268 28.89° C 63% 1020.7 hPa - - - -
1788576068 28.89° C 63% 1020.7 hPa - - - -
1788574868 28.89° C 63% 1020.7 hPa - - - -
1788573667 28.89° C 63% 1020.8 hPa - - - -
1788572467 28.89° C 62% 1020.8 hPa - - - -
1788571267 28.89° C 62% 1020.6 hPa - - - -
1788570066 28.89° C 62% 1020.5 hPa - - - -
1788568866 28.89° C 62% 1020.6 hPa - - - -
1788567666 28.89° C 62% 1020.8 hPa - - - -
1788566466 28.89° C 61% 1020.9 hPa - - - -
1788565265 28.89° C 61% 1021 hPa - - - -
1788564065 28.89° C 61% 1021.2 hPa - - - -
1788562865 28.89° C 61% 1021.3 hPa - - - -
1788561664 28.89° C 61% 1021.1 hPa - - - -
1788560464 28.89° C 61% 1021.1 hPa - - - -
1788559264 28.89° C 61% 1021.2 hPa - - - -
1788558063 28.89° C 61% 1021.1 hPa - - - -
1788556863 28.33° C 58% 1021.2 hPa - - - -
1788555662 28.33° C 54% 1021.1 hPa - - - -
1788554462 28.33° C 55% 1021 hPa - - - -
1788553262 28.33° C 58% 1021.1 hPa - - - -
1788552062 28.89° C 57% 1021.1 hPa - - - -
1788550861 28.89° C 56% 1020.9 hPa - - - -
1788549661 28.89° C 61% 1020.8 hPa - - - -

* Rain since midnight (hover to see other rain measurements)
** Current wind speed in m/s (hover to see current wind gust speed)